Regional Weather Roundup
Issued by NWS

Home | Current Version | Previous Version | Graphics & Text | Print | Product List | Glossary On
Versions: 1 2 3 4 5 6 7 8 9 10 11 12 13 14 15 16 17 18 19 20 21 22 23 24 25 26 27 28 29 30 31 32 33 34 35 36 37 38 39 40 41 42 43 44 45 46 47 48 49 50
000
ASUS43 KDMX 050707
RWRIA

WEATHER ROUNDUP FOR IOWA
NATIONAL WEATHER SERVICE DES MOINES IA
200 AM CDT SUN JUL 05 2015

NOTE: "FAIR" INDICATES FEW OR NO CLOUDS BELOW 12,000 FEET WITH NO
SIGNIFICANT WEATHER AND/OR OBSTRUCTIONS TO VISIBILITY.

* - THESE STATIONS ARE NOT NWS STATIONS...THUS NOT UNDER NWS
QUALITY CONTROL.  THEY ALSO DO NOT REPORT WEATHER SUCH
AS PRECIPITATION OR FOG.

IAZ001>003-012>014-020>022-031>034-043>046-050800-
   NORTHWEST IOWA

CITY           SKY/WX    TMP DP  RH WIND       PRES   REMARKS
CARROLL *      CLOUDY    63  61  94 S7        29.97F
CHEROKEE *     CLEAR     64  61  88 S6        29.94S
DENISON *      PTCLDY    66  61  82 S10       29.93F
LE MARS *        N/A     68  63  83 S8G14     29.92F
ORANGE CITY *  CLEAR     64  61  88 S7        29.92F
SHELDON *      CLEAR     66  66 100 S12       29.92S
SIOUX CITY     MOCLDY    68  61  78 SE8       29.91F
SPENCER        CLEAR     65  59  81 S9        29.94F
STORM LAKE *   CLEAR     63  61  94 S9        29.96F
$$

IAZ055>058-069>071-079>083-090>094-050800-
   SOUTHWEST IOWA

CITY           SKY/WX    TMP DP  RH WIND       PRES   REMARKS
ATLANTIC *     CLOUDY    66  61  82 S7        29.98F
AUDUBON *      CLEAR     61  57  88 CALM      29.99F
CLARINDA *     CLEAR     63  63 100 CALM      30.00F
COUNCIL BLFS * CLEAR     66  63  88 SE7       29.97S
CRESTON *      CLEAR     64  61  88 S6        30.01S
HARLAN  *      CLEAR     61  61 100 CALM      30.00F
LAMONI         CLEAR     67  62  84 S7        30.01F
RED OAK *      CLEAR     66  63  88 S3        29.98F
SHENANDOAH *   CLEAR     68  64  88 S6        29.98S
$$

IAZ047>049-059>061-072>074-084-050800-
   CENTRAL IOWA

CITY           SKY/WX    TMP DP  RH WIND       PRES   REMARKS
AMES           CLEAR     60  58  92 SE5       30.00S
ANKENY *       CLEAR     61  61 100 CALM      29.99F FOG
CHARITON *     MOCLDY    63  61  94 S6        30.01F
DES MOINES     CLEAR     67  60  78 S7        29.99F
GRINNELL*      CLEAR     64  61  88 SE6       30.03S
KNOXVILLE *    CLEAR     64  61  88 SE5       30.01R
MARSHALLTOWN   CLEAR     62  59  90 SE7       30.01S
PELLA *        CLEAR     64  64 100 SE5       30.03S
PERRY *          N/A     61  59  94 S3        30.00S
$$

IAZ004>006-015-016-023>025-035-036-050800-
   NORTH CENTRAL IOWA

CITY           SKY/WX    TMP DP  RH WIND       PRES   REMARKS
ALGONA *       MOCLDY    66  61  82 S12       29.96F
CLARION *      PTCLDY    63  59  88 SE9       29.99S
ESTHERVILLE    CLEAR     61  59  93 S7        29.95S
FORT DODGE *   CLEAR     66  57  72 S9        29.99S
MASON CITY     CLEAR     60  58  92 S7        30.01F
FOREST CITY *  CLEAR     59  59 100 SE7       29.98F
IOWA FALLS *     N/A     61  59  94 SE6       30.01F
$$

IAZ007>011-017>019-026>030-037>042-050>054-066-050800-
   NORTHEAST IOWA

CITY           SKY/WX    TMP DP  RH WIND       PRES   REMARKS
CEDAR RAPIDS   CLEAR     62  61  96 SE3       30.02S
CHARLES CITY * CLEAR     63  63 100 S7        30.02F
CLINTON *      CLEAR     64  59  82 S5        30.07R
DECORAH *        N/A    N/A N/A N/A MISG        N/A
DUBUQUE        CLEAR     60  57  89 CALM      30.05R
MONTICELLO *   CLEAR     61  61 100 CALM      30.04R
OELWEIN *      CLEAR     61  59  94 SE5       30.03F
WATERLOO       CLEAR     65  59  81 S5        30.01S
$$

IAZ064-065-067-068-078-050800-
   EAST CENTRAL IOWA

CITY           SKY/WX    TMP DP  RH WIND       PRES   REMARKS
DAVENPORT      CLEAR     61  58  90 S3        30.04R FOG
IOWA CITY      CLEAR     63  60  90 CALM      30.04R
MT. PLEASANT * CLEAR     66  61  82 S3        30.04R
MUSCATINE *    CLEAR     63  61  94 CALM      30.04R
QUAD CITIES    CLEAR     63  59  87 CALM      30.03R
$$

IAZ062-063-075>077-085>089-095>099-050800-
   SOUTHEAST IOWA

CITY           SKY/WX    TMP DP  RH WIND       PRES   REMARKS
BURLINGTON     CLEAR     65  63  93 S3        30.03S
FAIRFIELD *    CLEAR     63  59  88 SE3       30.03S
FORT MADISON * CLEAR     66  64  94 S6        30.05R
KEOKUK *       CLEAR     66  64  94 SE3       30.03R
OSKALOOSA *      N/A     61  59  94 SE3       30.02F
CENTERVILLE *  CLEAR    N/A N/A N/A SE6       30.03F
OTTUMWA        CLEAR     64  61  90 S6        30.01R
WASHINGTON *   CLEAR     63  61  94 S5        30.05R
$$

ABBREVIATIONS USED IN REMARKS
   TC - TEMPERATURES IN CELSIUS
  WCI - WIND CHILL INDEX
   HX - HEAT INDEX
  VSB - VISIBILITY
$$




USA.gov is the U.S. government's official web portal to all federal, state and local government web resources and services.